Simultaneous Nadir Overpasses (SNOs) Predictions

Prediction of SNOs between NPP and TERRA Satellite Orbit:

Table of predicted SNOs for the next 14.0 days since TLE Epoch: 11/24/2013
Index Date (NPP) Time (NPP) Lat,Lon (NPP) SZA (NPP ) Date (TERRA) Time (TERRA) Lat,Lon (TERRA) SZA (TERRA ) Distance(km) Time Diff (sec)
1 11/26/2013 09:50:04 68.51, 31.20 89.41 11/26/2013 09:50:48 68.55, 31.20 89.44 3.57 44
2 11/26/2013 10:40:45 -68.37,-161.30 90.73 11/26/2013 10:40:19 -68.38,-161.36 90.72 2.80 26
3 11/29/2013 01:16:33 -69.31, -21.45 89.33 11/29/2013 01:17:41 -69.21, -19.73 89.42 68.84 68
4 11/29/2013 02:07:04 68.50, 146.98 89.87 11/29/2013 02:07:19 68.49, 147.01 89.86 1.65 15
5 11/29/2013 02:57:45 -68.35, -45.52 90.27 11/29/2013 02:56:49 -68.38, -45.49 90.25 3.36 56
6 12/01/2013 17:33:19 -68.56, 95.35 89.65 12/01/2013 17:34:22 -68.57, 95.34 89.64 0.78 63
7 12/01/2013 18:24:03 68.44, -97.18 90.24 12/01/2013 18:23:49 68.45, -97.15 90.25 2.27 14
8 12/01/2013 19:14:37 -67.92, 70.80 90.28 12/01/2013 19:13:26 -67.96, 69.89 90.25 38.30 71
9 12/04/2013 09:50:17 -68.51,-148.82 89.32 12/04/2013 09:50:51 -68.51,-148.85 89.33 1.31 34
10 12/04/2013 10:41:01 68.39, 18.65 90.56 12/04/2013 10:40:18 68.39, 18.65 90.56 0.35 43
11 12/07/2013 01:16:37 68.73, 159.34 91.22 12/07/2013 01:17:48 68.68, 159.61 91.17 12.21 71
12 12/07/2013 02:07:16 -68.47, -33.01 89.04 12/07/2013 02:07:20 -68.47, -33.01 89.04 0.36 4
13 12/07/2013 02:58:00 68.35, 134.46
